{"data":{"norad_id":61668,"intl_designator":"2024-193H","name":"STARLINK-32441","alt_names":[],"object_type":"PAYLOAD","status":"ACTIVE","operator":null,"country":"US","launch_date":"2024-10-26","launch_site_code":"AFETR","launch_vehicle":null,"mission":null,"orbit_class":"UNKNOWN","rcs_meters":null,"size_class":null,"mass_kg":null,"dimensions":null,"purposes":["comms"],"wikipedia_slug":null,"has_3d_model":false,"image_url":null,"decayed_at":null,"tle_current":{"epoch":"2026-05-25T03:56:01.411872Z","epoch_age_seconds":67795,"freshness":"FRESH","line1":"1 61668U 24193H   26145.16390523 -.00000056  00000+0  10238-4 0  9992","line2":"2 61668  53.1612  95.9019 0001311  94.6522 265.4628 15.30192580 88232","mean_motion":15.3019258,"eccentricity":0.0001311,"inclination_deg":53.1612,"raan_deg":95.9019,"arg_perigee_deg":94.6522,"mean_anomaly_deg":265.4628,"bstar":1.0238e-5,"rev_number":8823,"period_min":94.10580202918,"perigee_km":474.33874693058,"apogee_km":476.13570165219,"semimajor_km":6853.3742242914,"source":"CELESTRAK","updated_at":"2026-05-25T13:38:19.433761Z"}}}